Find Starlink 32587

NORAD ID: 62180 Int'l Des: 2024-225 Owner: SPXS Country: US Constellation: starlink operational
LEOCIRCULAR

リアルタイム位置

3D地球を読み込み中...

Starlink 32587について

説明を読み込み中...

次回通過

Passes for default location (London). Set your location on the main map for personalized predictions.

高度履歴

Loading altitude history...

軌道要素

1 62180U 24225T 26125.81115501 .00005762 00000-0 49019-3 0 9996
2 62180 70.0015 20.2488 0002788 269.9983 90.0857 14.98341489 78439
Epoch: May 5, 2026 • Age: 14 hours

現在のステータス

高度 574.2 km
速度 7.57 km/s
衛星直下点 13.62°N, 10.2°E
打ち上げ日 Nov 30, 2024
運用期間 1.4 years
タイプ internet

技術仕様

分類 Payload
質量 730.00 kg
乾燥質量 700.00 kg
総質量 730.00 kg
長さ 0.30 m
直径 4.10 m
スパン 29.00 m
形状 Box + pan
製造者 SPXS
バスタイプ Starlink V2M
フェーズステータス In Orbit
所有者/国 SPXS/US

Most Searched